Location: Hradec Kralove
(50.2170°N, 15.8330°E)
Time: 11:32:52
(UTC+02:00)

Explorer 7 - Pass Details

Date: 28 January 2023
Orbit: 478 x 657 km, 50.3° (Epoch: 26 March)

Event Time Altitude Azimuth Distance (km) Brightness Sun altitude
Rises 13:57:41 0° 216° (SW) 2,741 12.0 17.6°
Maximum altitude 14:03:49 29° 145° (SE) 1,097 8.9 17.1°
Drops below altitude 10° 14:07:46 10° 85° (E) 1,988 9.4 16.8°
Sets 14:10:21 0° 74° (ENE) 2,926 10.1 16.6°
